EHI
0 0 0 0 0 0 0 0 0 0 0 0 2 6 11 17 26 40 51 56 56 55 60 71 80 88 92 92 89 87 80 70 62 51 37 25 16 12 12 13 13 14 15 15
0 0 0 0 0 0 0 0 0 0 0 1 2 6 10 16 26 40 52 61 65 66 69 76 83 90 95 95 93 90 83 74 64 51 33 21 14 12 12 13 14 14 16 17
0 0 0 0 0 0 0 0 0 0 1 1 2 4 9 17 26 38 52 63 71 76 80 83 87 92 96 98 96 93 86 76 64 51 36 24 17 15 14 14 14 14 15 17
0 0 0 0 0 0 0 0 0 0 0 0 1 2 6 14 24 35 47 60 70 78 83 87 89 90 93 95 95 92 86 77 66 55 45 34 26 21 16 14 14 13 13 14
0 0 0 0 0 0 0 0 0 0 0 0 0 0 3 9 19 30 42 56 68 76 83 87 87 85 85 88 89 88 84 76 67 60 51 38 28 21 14 11 12 12 13 14
0 0 0 0 0 0 0 0 0 0 0 0 0 0 1 6 14 25 38 52 63 72 80 84 84 81 79 79 80 81 78 71 63 58 49 37 26 17 11 9 10 12 14 14
0 0 0 0 0 0 0 0 0 0 0 0 0 0 0 4 11 21 33 46 57 67 76 79 78 76 73 72 73 76 75 68 61 54 46 37 28 18 13 10 9 10 12 13
0 0 0 0 0 0 0 0 0 0 0 0 0 0 2 6 11 19 31 43 53 63 70 71 69 66 65 65 68 72 72 67 60 53 44 35 28 20 14 10 8 8 9 10
0 0 0 0 0 0 0 0 0 0 0 0 0 1 3 8 12 19 29 39 50 59 63 61 58 58 58 61 65 68 68 63 56 48 38 29 24 20 15 10 7 6 6 6
0 0 0 0 0 0 0 0 0 0 0 0 0 1 3 8 13 18 25 35 44 51 55 53 51 53 56 58 60 61 60 56 49 39 29 22 20 18 15 10 7 6 3 2
0 0 0 0 0 0 0 0 0 0 0 0 0 1 2 5 12 18 26 32 38 45 48 48 49 52 54 53 52 52 52 48 41 31 23 19 18 17 14 11 9 7 3 1
0 0 0 0 0 0 0 0 0 0 0 0 0 1 1 4 12 22 28 32 37 42 45 47 50 52 51 47 44 43 42 38 33 26 20 18 16 14 12 10 9 8 5 3
0 0 0 0 0 0 0 0 0 0 0 0 0 1 2 6 14 21 27 32 39 43 44 45 46 46 43 40 38 35 31 28 27 24 20 17 14 11 10 9 8 7 6 4
0 0 0 0 0 0 0 0 0 0 0 0 0 1 3 9 15 20 25 31 37 40 39 37 37 36 34 33 31 28 24 22 22 21 19 17 14 11 9 9 7 7 6 5
0 0 0 0 0 0 0 0 0 0 1 1 1 2 5 11 18 22 25 29 33 34 33 31 31 30 29 29 27 25 22 20 21 21 19 17 14 11 10 10 8 7 6 6
0 0 0 0 0 0 0 0 0 1 2 2 2 4 9 17 22 23 26 28 31 32 33 31 29 27 27 26 25 24 22 21 21 22 21 17 13 11 10 10 9 8 6 6
0 0 0 0 0 0 0 0 1 3 4 4 4 7 16 26 28 26 27 29 31 33 34 31 27 25 24 24 22 20 19 20 21 22 19 15 11 11 11 10 9 7 6 6
0 0 0 0 0 0 1 1 2 7 11 11 10 14 25 35 37 33 29 28 29 30 30 26 24 23 23 23 21 18 17 18 19 19 16 12 10 10 10 9 7 5 4 4
0 0 0 0 0 1 2 3 4 9 18 21 20 24 33 41 43 37 28 25 25 24 22 21 20 22 23 22 21 18 16 17 17 15 12 10 8 8 6 5 4 3 3 3
0 0 0 0 0 1 3 5 5 9 18 25 28 30 33 38 37 31 25 23 22 19 16 16 18 19 19 18 17 16 16 16 14 12 9 6 4 3 2 1 1 2 2 1
0 0 0 0 0 1 3 6 6 8 14 22 28 30 29 27 26 25 24 23 21 17 13 13 15 15 13 11 12 14 14 13 10 7 4 2 1 1 0 0 0 1 1 0
0 0 0 0 0 1 2 4 6 8 13 19 23 25 25 22 20 22 21 19 17 13 10 10 12 10 7 6 8 10 9 8 6 4 1 0 0 0 0 0 0 0 0 0
0 0 0 0 0 0 0 2 5 9 14 16 16 18 18 17 17 17 15 12 11 9 7 6 6 5 3 3 4 4 4 4 4 2 1 0 0 0 0 0 0 0 0 0
0 0 0 0 1 1 1 3 5 9 11 11 10 11 13 12 12 12 11 10 9 7 6 4 3 3 1 1 1 1 1 2 2 1 0 0 0 0 0 0 0 0 0 0
0 0 0 0 1 2 2 4 5 7 9 8 8 9 11 10 9 9 10 10 8 6 5 4 3 2 1 0 1 0 1 1 1 0 0 0 0 0 0 0 0 0 0 0
0 0 0 0 0 1 3 4 4 6 8 9 9 9 9 8 8 8 8 8 7 5 4 4 3 2 0 0 1 0 0 1 0 0 0 0 0 0 0 0 0 0 0 0
Wind_Speed
4 3 6 8 8 7 4 5 9 10 8 2 6 8 10 11 12 14 14 15 16 16 13 13 14 14 13 12 13 12 12 10 9 6 6 5 5 5 5 5 7 8 7 7
1 7 10 7 6 6 7 8 10 11 7 1 4 6 7 10 14 16 17 17 17 13 12 13 14 14 14 14 14 13 12 11 10 7 5 4 4 4 4 5 6 7 7 7
10 7 8 8 8 8 9 9 9 8 7 3 2 2 2 4 6 9 13 15 16 18 18 17 16 15 14 15 15 13 12 11 10 8 5 4 3 2 2 4 4 6 7 7
7 9 7 8 11 9 9 10 9 7 3 4 2 2 6 3 3 6 9 11 13 15 15 15 15 15 15 14 13 12 12 11 10 9 8 8 6 6 6 5 5 6 7 7
8 8 10 11 14 11 10 9 6 4 2 1 1 3 7 1 4 7 9 12 13 14 16 16 15 15 14 13 12 11 10 10 9 9 9 9 6 5 3 4 5 6 6 6
9 7 8 12 12 11 9 4 4 4 5 1 4 4 6 5 8 8 8 11 13 14 14 14 13 11 10 11 11 11 11 10 10 10 9 9 9 7 6 6 6 6 4 5
7 9 8 6 7 6 4 4 3 4 3 6 4 3 8 7 7 9 10 10 11 13 13 12 11 11 11 12 12 11 12 11 10 11 10 10 10 9 9 8 8 7 5 5
6 7 8 7 9 8 6 11 9 6 5 5 3 4 8 6 4 5 7 8 9 10 12 13 13 11 11 12 12 12 12 10 10 10 10 9 9 7 6 7 6 7 6 6
7 8 7 7 7 10 6 6 10 8 2 0 4 5 6 3 2 4 6 8 9 10 11 11 10 9 9 10 11 12 12 10 10 10 8 8 8 8 7 7 6 6 5 6
7 5 7 6 3 5 9 8 6 6 5 3 4 3 4 3 1 2 5 7 7 9 8 8 9 9 8 8 8 9 9 10 9 8 8 7 8 8 7 6 7 7 7 7
8 5 6 2 5 7 4 4 6 6 6 6 3 6 6 6 5 5 5 5 7 9 8 7 7 8 7 6 6 7 7 7 7 8 7 7 7 7 6 6 7 6 6 7
7 6 5 7 7 8 8 8 9 7 4 5 4 8 4 5 5 6 7 6 6 7 7 7 7 8 7 6 6 6 6 6 7 7 7 7 6 6 6 6 6 6 6 6
6 6 2 6 5 1 4 5 7 7 6 5 5 7 2 3 4 5 7 7 6 6 6 5 6 7 7 6 5 5 5 5 5 6 6 6 5 5 5 5 5 4 5 4
7 5 7 9 8 4 3 4 5 8 5 4 7 6 2 3 5 5 6 6 6 7 7 6 6 6 6 6 5 4 3 4 4 5 6 5 5 5 5 4 4 4 4 4
6 4 4 5 4 3 3 4 5 6 8 9 8 8 9 9 8 8 8 8 8 8 8 8 7 6 5 5 5 4 4 4 4 5 5 5 4 4 4 4 4 4 3 3
4 3 2 2 2 1 1 3 4 5 5 5 6 5 5 7 7 8 9 10 9 8 9 8 7 6 6 6 5 5 4 4 5 5 5 5 5 5 4 4 4 4 3 3
2 4 3 2 2 2 2 4 4 3 3 8 8 7 7 8 10 10 10 10 10 8 8 8 7 6 5 5 5 5 5 5 6 6 5 5 5 4 4 5 5 4 4 4
5 4 3 1 3 3 6 3 2 5 2 3 6 8 10 9 7 6 7 10 9 8 8 7 7 6 6 5 6 6 6 7 7 6 5 4 5 5 4 5 5 4 4 4
6 6 4 3 2 2 4 3 1 4 3 2 7 9 9 11 10 7 4 7 8 8 8 7 6 7 7 7 6 7 7 7 7 6 5 4 5 5 5 5 4 4 5 5
4 6 5 4 4 3 4 5 2 7 3 1 7 10 9 8 6 3 4 9 10 9 8 8 7 8 8 6 7 8 7 7 6 5 5 4 5 5 5 5 5 5 6 6
3 3 4 4 3 3 5 6 3 5 5 2 5 8 6 4 5 7 9 9 10 9 9 9 9 7 6 6 7 8 7 6 5 6 6 6 6 6 6 6 6 6 7 7
3 3 3 4 3 5 4 3 3 5 3 6 6 7 8 9 11 11 10 10 10 9 9 8 9 7 5 5 8 8 7 5 6 7 7 7 6 6 6 7 6 6 6 7
0 3 4 4 5 4 0 3 2 5 7 5 5 8 11 10 11 11 10 9 9 8 8 7 8 8 5 5 6 8 6 6 8 9 8 8 8 8 7 7 6 6 5 6
3 3 3 3 1 1 3 3 5 7 7 6 8 10 11 11 11 11 10 9 8 7 7 7 8 8 6 5 5 6 6 7 9 9 8 8 8 9 8 7 6 5 5 5
3 3 3 3 1 4 4 3 6 8 9 9 8 8 10 12 11 11 10 9 8 7 6 6 7 7 7 6 6 6 6 8 10 9 8 8 8 8 9 8 7 6 5 4
2 1 3 3 4 3 2 2 7 9 8 8 10 10 9 11 11 11 10 8 8 8 7 7 7 7 7 6 7 6 6 8 10 9 7 7 7 6 7 8 9 14 12 14
Wind_Direction
202 143 209 218 204 206 242 285 287 281 288 245 181 187 193 182 178 177 180 181 186 189 184 175 172 170 167 166 169 171 168 171 165 161 161 163 172 175 178 185 181 174 174 169
194 230 221 216 228 235 251 268 277 288 292 250 190 201 193 182 185 182 180 185 186 177 172 177 173 173 173 173 174 174 174 175 175 172 166 167 165 174 180 185 185 181 175 172
199 227 204 215 236 243 251 238 250 260 300 337 136 281 256 209 188 187 181 181 181 179 177 178 177 177 174 178 180 180 180 177 176 167 152 144 133 137 166 183 189 194 182 179
233 240 231 218 232 226 251 243 241 252 263 280 149 223 270 219 194 183 181 176 179 180 176 177 176 176 180 183 180 179 179 177 176 169 169 171 177 186 194 186 185 189 189 183
232 213 215 226 230 221 232 244 242 243 203 296 346 149 273 226 191 203 187 177 180 181 177 178 180 181 182 179 178 177 174 178 177 177 180 182 189 192 181 174 181 190 195 191
242 246 211 221 233 223 224 254 339 35 70 283 247 162 259 228 199 192 189 177 176 176 178 178 178 172 177 174 176 176 177 183 182 183 187 189 190 188 182 185 189 195 196 196
269 263 251 232 235 248 193 116 34 356 7 253 261 171 243 245 205 182 180 182 177 170 172 172 172 170 175 176 179 181 182 188 189 190 193 195 194 193 194 192 195 195 196 201
213 261 238 217 199 202 191 147 158 184 212 272 320 228 254 254 196 166 166 161 157 162 168 173 175 173 177 178 179 182 185 189 190 195 198 197 195 196 200 197 196 201 202 205
191 241 255 226 200 173 176 175 168 140 167 250 281 284 311 345 69 126 144 138 151 159 166 171 170 171 177 180 182 183 185 188 193 196 196 198 197 195 198 198 197 201 201 203
179 236 266 239 221 203 174 166 114 122 155 229 276 260 248 272 275 135 146 149 148 149 153 162 168 175 179 180 179 181 186 190 191 191 194 200 201 197 194 194 200 201 200 202
180 198 279 293 195 200 167 143 130 135 155 158 225 264 232 207 180 157 151 153 149 145 151 160 171 170 163 162 172 180 183 181 186 191 193 195 196 194 190 197 204 200 197 197
176 155 233 252 240 193 173 176 149 152 201 163 169 260 270 187 164 144 138 139 142 137 140 148 157 149 147 155 172 182 181 184 190 189 186 189 189 186 188 194 199 195 195 195
155 138 173 321 324 230 165 167 155 139 131 152 165 254 291 144 133 128 125 124 130 126 123 131 141 145 149 153 163 173 173 179 180 175 174 175 176 179 185 188 184 180 180 178
129 130 164 195 214 200 188 187 155 133 151 187 203 208 245 184 155 137 130 130 128 127 130 137 141 141 144 145 147 148 146 153 155 157 159 164 171 176 175 172 166 163 160 160
108 147 190 208 211 177 193 203 182 164 174 179 202 189 202 190 169 158 149 139 135 131 130 133 137 139 134 129 131 133 130 128 132 136 142 150 151 146 144 146 148 145 140 142
76 135 175 281 278 186 236 229 199 181 164 165 157 202 202 162 142 146 149 146 147 142 140 136 129 127 127 129 131 126 121 124 121 121 129 131 127 126 127 134 133 126 122 119
82 99 105 261 308 57 273 248 205 182 167 157 175 199 155 147 158 163 157 148 147 145 135 128 125 121 119 119 122 123 118 109 107 109 113 120 125 125 127 129 123 122 117 110
134 107 117 117 74 186 242 272 128 127 105 138 151 154 154 151 132 119 131 136 141 135 123 117 115 112 105 101 102 102 101 99 99 97 98 105 116 117 117 115 116 117 110 108
150 133 117 118 138 254 312 340 32 121 50 51 128 132 124 113 90 59 70 120 129 127 120 115 112 109 103 99 100 99 96 96 94 90 87 92 103 110 111 110 112 112 107 97
108 115 117 125 138 203 254 289 290 102 69 337 122 131 135 119 116 152 119 108 106 103 103 100 94 95 95 95 99 97 95 95 94 92 87 86 94 103 107 108 105 99 99 98
66 77 125 138 153 244 267 299 41 121 196 194 129 131 125 122 143 137 120 107 106 105 104 98 92 90 93 97 98 97 95 92 93 92 86 81 82 89 93 91 90 96 97 92
161 151 159 136 147 237 294 16 119 182 160 131 119 118 107 110 113 116 115 112 110 106 101 100 99 92 84 91 100 99 95 92 91 90 85 80 76 81 86 90 89 91 98 96
118 179 164 161 186 223 189 140 164 133 119 111 113 115 118 121 121 118 114 113 111 108 103 100 106 101 88 88 105 108 103 99 95 90 85 82 79 73 73 82 88 87 88 94
335 26 87 84 55 56 52 83 92 97 104 112 121 122 126 127 126 120 116 112 107 102 102 105 108 107 102 95 96 107 108 103 100 96 91 88 86 78 68 65 65 74 79 94
311 18 60 87 109 59 39 77 108 104 101 104 108 114 124 122 123 121 117 114 110 105 102 106 112 113 108 104 103 106 112 112 106 101 99 95 90 89 81 70 57 62 47 69
307 153 143 200 211 147 160 128 114 109 105 115 117 110 111 117 121 117 113 111 108 106 104 102 99 101 102 105 108 111 116 118 115 109 106 104 102 97 96 95 78 57 65 66